563  
ASUS45 KSLC 211410  
RWRUT  
 
UTAH REGIONAL WEATHER ROUNDUP  
NATIONAL WEATHER SERVICE SALT LAKE CITY UT  
700 AM MST THU FEB 21 2019  
 
UTZ001>011-023>025-211500-  
 
NORTHERN UTAH  
 
CITY SKY/WX TMP DP RH WIND PRES REMARKS
 
BRIGHAM CITY MOCLDY 20 12 71 W6 29.67S WCI 12  
DUGWAY MOCLDY 23 19 86 SE5 N/A WCI 16  
HILL AFB PTCLDY 19 11 72 NE14G23 29.62F WCI 5  
LOGAN CLOUDY 10 6 84 CALM 29.70S FOG  
OGDEN PTCLDY 18 11 74 SW5 29.63S WCI 11  
SALT LAKE CITY PTCLDY 24 19 81 CALM 29.63F  
TOOELE VALLEY CLOUDY 18 12 79 SE3 29.64F  
WENDOVER FLURRIES 24 21 88 N15 29.65S WCI 11  
HEBER CITY N/A 3 -2 78 E5 29.61S WCI -6  
WEST JORDAN CLEAR 15 14 98 W7 29.63S WCI 5  
 

 
 
UTZ011>015-024>027-211500-  
 
CENTRAL/NORTHEAST UTAH  
 
CITY SKY/WX TMP DP RH WIND PRES REMARKS
 
PROVO AIRPORT MOCLDY 21 13 71 CALM 29.63S  
MOAB/CANYONLAN CLOUDY 23 21 92 SE7 29.62S WCI 15  
DELTA MOCLDY 18 16 93 NE6 29.59S WCI 9  
PRICE CLOUDY 16 14 92 CALM 29.58R  
RICHFIELD CLEAR 18 14 86 CALM 29.56S  
ROOSEVELT FLURRIES 14 10 85 CALM 29.69S  
VERNAL LGT SNOW 17 10 74 NW5 29.66S WCI 10  
 

 
 
UTZ013>016-019>022-027-211500-  
 
SOUTHERN UTAH  
 
CITY SKY/WX TMP DP RH WIND PRES REMARKS
 
BRYCE CANYON LGT SNOW 16 13 88 SE15 29.45F VSB 1 WCI 1  
CEDAR CITY CLOUDY 21 19 92 N6 29.46F WCI 13  
MILFORD CLOUDY 18 15 88 NE7 29.53F WCI 9  
ST GEORGE CLOUDY 29 28 96 CALM 29.55S  
HANKSVILLE CLOUDY 27 23 86 CALM 29.65S  
KANAB MOCLDY 27 25 93 N2 29.56F FOG  
BLANDING N/A 23 23 99 SE10 29.67S WCI 13  
 

 
 
REGIONAL REPORTS COLORADO/ARIZONA  
 
CITY SKY/WX TMP DP RH WIND PRES REMARKS
 
CRAIG, CO CLOUDY 15 6 67 VRB3 29.64R  
GRAND JUNCTION CLOUDY 26 22 84 E7 29.64S WCI 18  
RIFLE, CO CLOUDY 22 18 85 CALM 29.65S  
MONTROSE, CO CLOUDY 23 16 74 W3 29.66R  
CORTEZ, CO LGT SNOW 24 20 84 NE5 29.64S FOG WCI 18  
COLORADO CITY LGT SNOW 30 28 93 E9 29.53S WCI 22  
PAGE, AZ CLOUDY 31 24 75 CALM 29.56S  
GRAND CANYON LGT SNOW 22 20 92 S6 29.49S FOG WCI 14  
KINGMAN, AZ SNOW 32 30 92 MISG 29.53S VSB 1/2  
FLAGSTAFF, AZ SNOW 20 18 92 S9 29.49F VSB 1/2 WCI 9  
 

 
 
REGIONAL REPORTS NEVADA/IDAHO/WYOMING  
 
CITY SKY/WX TMP DP RH WIND PRES REMARKS
 
LAS VEGAS, NV LGT RAIN 35 35 100 CALM 29.54F  
ELY, NY MOCLDY 5 2 87 SE7 29.52R WCI -7  
ELKO, NV PTCLDY 16 13 88 E6 29.57S WCI 7  
POCATELLO, ID PTCLDY 3 -2 79 CALM 29.75R  
BURLEY, ID PTCLDY 15 9 76 E8 29.73R WCI 4  
FORT BRIDGER, LGT SNOW 1 -1 88 CALM 29.64S  
EVANSTON, WY PTCLDY 3 -3 76 E12 29.59R WCI -13  
ROCK SPRINGS, LGT SNOW 6 3 87 NE10 29.64R VSB 1 WCI -9  
 

 
 
 
CLICK HERE TO GO TO PREVIOUS BULLETINS.

The Nexlab UT Page Main Text Page